DAL2644 KDTW-KBHM

Flight info

Callsign DAL2644
Flight time 1h 26m
Altitude 38000
Route CLVIN3 STAZE IIU BNA RQZ NULLS
Aircraft A319/M-SDE3FGHIRWY/LB1

Departure

Time 2026-05-03 22:07
Airport Detroit Metropolitan Wayne County Airport (KDTW)

Arrival

Time 2026-05-03 23:33
Airport Birmingham-Shuttlesworth International Airport (KBHM)
Time Latitude Longitude Altitude Speed Heading
2026-05-03 21:38 42.20373 -83.36081 647 ft 0 kts 298°
2026-05-03 21:53 42.20371 -83.36075 646 ft 4 kts 298°
2026-05-03 21:54 42.20360 -83.36047 646 ft 2 kts 298°
2026-05-03 21:54 42.20353 -83.36021 646 ft 4 kts 242°
2026-05-03 21:54 42.20370 -83.36001 647 ft 4 kts 209°
2026-05-03 21:54 42.20377 -83.35996 646 ft 0 kts 209°
2026-05-03 21:57 42.20364 -83.36006 647 ft 6 kts 209°
2026-05-03 21:57 42.20305 -83.36050 646 ft 13 kts 208°
2026-05-03 21:57 42.20224 -83.36108 646 ft 13 kts 208°
2026-05-03 21:57 42.20162 -83.36104 646 ft 10 kts 112°
2026-05-03 21:58 42.20163 -83.36009 646 ft 11 kts 90°
2026-05-03 21:58 42.20165 -83.35887 646 ft 16 kts 88°
2026-05-03 21:58 42.20168 -83.35718 646 ft 20 kts 88°
2026-05-03 21:58 42.20172 -83.35533 647 ft 19 kts 89°
2026-05-03 21:59 42.20174 -83.35352 649 ft 19 kts 89°
2026-05-03 21:59 42.20184 -83.35209 650 ft 11 kts 61°
2026-05-03 21:59 42.20249 -83.35151 648 ft 12 kts 28°
2026-05-03 21:59 42.20323 -83.35096 649 ft 13 kts 28°
2026-05-03 22:00 42.20402 -83.35039 648 ft 13 kts 28°
2026-05-03 22:00 42.20488 -83.35010 648 ft 13 kts 352°
2026-05-03 22:00 42.20576 -83.34990 647 ft 13 kts 28°
2026-05-03 22:00 42.20658 -83.34926 647 ft 14 kts 26°
2026-05-03 22:01 42.20746 -83.34865 647 ft 14 kts 28°
2026-05-03 22:01 42.20834 -83.34793 647 ft 15 kts 48°
2026-05-03 22:01 42.20891 -83.34677 647 ft 15 kts 36°
2026-05-03 22:01 42.20988 -83.34608 648 ft 16 kts 27°
2026-05-03 22:02 42.21088 -83.34533 648 ft 17 kts 29°
2026-05-03 22:02 42.21191 -83.34455 647 ft 17 kts 29°
2026-05-03 22:02 42.21299 -83.34378 647 ft 18 kts 28°
2026-05-03 22:02 42.21407 -83.34296 647 ft 18 kts 29°
2026-05-03 22:03 42.21518 -83.34212 648 ft 19 kts 30°
2026-05-03 22:03 42.21642 -83.34164 647 ft 19 kts
2026-05-03 22:03 42.21776 -83.34171 645 ft 20 kts 358°
2026-05-03 22:03 42.21904 -83.34127 647 ft 19 kts 30°
2026-05-03 22:04 42.22020 -83.34036 648 ft 19 kts 27°
2026-05-03 22:04 42.22139 -83.33951 647 ft 19 kts 28°
2026-05-03 22:04 42.22259 -83.33865 647 ft 20 kts 28°
2026-05-03 22:04 42.22378 -83.33779 650 ft 19 kts 28°
2026-05-03 22:05 42.22498 -83.33692 648 ft 20 kts 28°
2026-05-03 22:05 42.22610 -83.33609 648 ft 12 kts 28°
2026-05-03 22:05 42.22675 -83.33613 649 ft 11 kts 309°
2026-05-03 22:05 42.22707 -83.33690 649 ft 6 kts 296°
2026-05-03 22:06 42.22687 -83.33722 647 ft 5 kts 209°
2026-05-03 22:06 42.22565 -83.33811 647 ft 53 kts 208°
2026-05-03 22:06 42.22040 -83.34199 647 ft 117 kts 208°
2026-05-03 22:06 42.21217 -83.34812 986 ft 140 kts 210°
2026-05-03 22:07 42.20364 -83.35446 1747 ft 139 kts 213°
2026-05-03 22:07 42.19519 -83.36067 2465 ft 140 kts 213°
2026-05-03 22:07 42.18551 -83.36607 2903 ft 164 kts 201°
2026-05-03 22:07 42.17377 -83.37055 3252 ft 187 kts 201°
2026-05-03 22:08 42.16039 -83.37561 3660 ft 213 kts 200°
2026-05-03 22:08 42.14535 -83.38129 4240 ft 235 kts 200°
2026-05-03 22:08 42.12933 -83.38730 5142 ft 243 kts 200°
2026-05-03 22:08 42.11286 -83.39343 6134 ft 248 kts 200°
2026-05-03 22:09 42.09601 -83.39971 7091 ft 253 kts 200°
2026-05-03 22:09 42.07881 -83.40618 7985 ft 260 kts 200°
2026-05-03 22:09 42.06116 -83.41262 8896 ft 266 kts 199°
2026-05-03 22:10 42.02418 -83.42488 10397 ft 289 kts 199°
2026-05-03 22:10 42.00382 -83.43154 10725 ft 313 kts 198°
2026-05-03 22:10 41.98220 -83.43860 11346 ft 325 kts 198°
2026-05-03 22:10 41.95956 -83.44387 12077 ft 336 kts 188°
2026-05-03 22:11 41.93580 -83.44293 12852 ft 348 kts 178°
2026-05-03 22:11 41.91153 -83.43937 13620 ft 354 kts 178°
2026-05-03 22:11 41.88683 -83.43595 14320 ft 359 kts 178°
2026-05-03 22:11 41.86177 -83.43259 15009 ft 365 kts 179°
2026-05-03 22:12 41.83605 -83.42918 15723 ft 369 kts 179°
2026-05-03 22:12 41.81066 -83.42580 16410 ft 374 kts 178°
2026-05-03 22:12 41.78463 -83.42228 17092 ft 378 kts 178°
2026-05-03 22:12 41.75793 -83.41939 17767 ft 381 kts 185°
2026-05-03 22:13 41.73202 -83.42484 18400 ft 376 kts 203°
2026-05-03 22:13 41.70813 -83.43867 19032 ft 375 kts 210°
2026-05-03 22:13 41.68437 -83.45360 19677 ft 378 kts 210°
2026-05-03 22:13 41.66080 -83.46847 20306 ft 381 kts 210°
2026-05-03 22:14 41.63640 -83.48385 20939 ft 385 kts 210°
2026-05-03 22:14 41.61210 -83.49915 21565 ft 388 kts 210°
2026-05-03 22:14 41.58785 -83.51432 22166 ft 391 kts 211°
2026-05-03 22:14 41.56312 -83.52976 22789 ft 394 kts 211°
2026-05-03 22:15 41.53822 -83.54534 23396 ft 396 kts 211°
2026-05-03 22:15 41.51319 -83.56102 23926 ft 399 kts 211°
2026-05-03 22:15 41.48801 -83.57679 24432 ft 401 kts 211°
2026-05-03 22:15 41.46268 -83.59261 24943 ft 403 kts 211°
2026-05-03 22:16 41.43726 -83.60843 25432 ft 405 kts 211°
2026-05-03 22:16 41.41167 -83.62437 25913 ft 407 kts 211°
2026-05-03 22:16 41.38595 -83.64038 26369 ft 409 kts 212°
2026-05-03 22:16 41.36020 -83.65642 26895 ft 409 kts 212°
2026-05-03 22:17 41.33433 -83.67249 27419 ft 410 kts 212°
2026-05-03 22:17 41.30840 -83.68859 27891 ft 412 kts 212°
2026-05-03 22:17 41.28238 -83.70473 28359 ft 414 kts 212°
2026-05-03 22:17 41.25618 -83.72098 28819 ft 416 kts 213°
2026-05-03 22:18 41.22987 -83.73731 29267 ft 418 kts 213°
2026-05-03 22:18 41.20347 -83.75370 29705 ft 420 kts 213°
2026-05-03 22:18 41.17692 -83.77016 30085 ft 422 kts 213°
2026-05-03 22:18 41.15020 -83.78664 30422 ft 425 kts 213°
2026-05-03 22:19 41.12330 -83.80319 30741 ft 427 kts 213°
2026-05-03 22:19 41.09631 -83.81982 31079 ft 430 kts 213°
2026-05-03 22:19 41.06945 -83.83634 31378 ft 432 kts 213°
2026-05-03 22:19 41.04182 -83.85333 31759 ft 433 kts 213°
2026-05-03 22:20 41.01488 -83.86983 32183 ft 432 kts 213°
2026-05-03 22:20 40.98759 -83.88656 32597 ft 432 kts 213°
2026-05-03 22:20 40.96033 -83.90331 32973 ft 432 kts 214°
2026-05-03 22:20 40.93309 -83.92005 33392 ft 431 kts 214°
2026-05-03 22:21 40.90588 -83.93675 33807 ft 431 kts 214°
2026-05-03 22:21 40.87871 -83.95340 34194 ft 431 kts 213°
2026-05-03 22:21 40.85145 -83.97009 34541 ft 431 kts 213°
2026-05-03 22:21 40.82426 -83.98672 34878 ft 431 kts 213°
2026-05-03 22:22 40.79708 -84.00334 35194 ft 431 kts 213°
2026-05-03 22:22 40.76983 -84.01993 35503 ft 432 kts 213°
2026-05-03 22:22 40.75136 -84.03116 35682 ft 432 kts 213°
2026-05-03 22:22 40.72412 -84.04773 35996 ft 431 kts 212°
2026-05-03 22:23 40.69687 -84.06429 36291 ft 431 kts 212°
2026-05-03 22:23 40.66998 -84.08063 36571 ft 431 kts 212°
2026-05-03 22:23 40.64241 -84.09740 36844 ft 431 kts 212°
2026-05-03 22:23 40.61516 -84.11397 37108 ft 432 kts 212°
2026-05-03 22:24 40.58826 -84.13031 37373 ft 432 kts 212°
2026-05-03 22:24 40.56090 -84.14688 37638 ft 432 kts 211°
2026-05-03 22:24 40.53360 -84.16337 37882 ft 432 kts 211°
2026-05-03 22:24 40.50619 -84.17987 38011 ft 434 kts 211°
2026-05-03 22:25 40.47876 -84.19638 38027 ft 434 kts 211°
2026-05-03 22:25 40.42397 -84.22942 38026 ft 434 kts 211°
2026-05-03 22:26 40.36909 -84.26250 38028 ft 434 kts 211°
2026-05-03 22:26 40.31429 -84.29548 38020 ft 433 kts 211°
2026-05-03 22:27 40.25954 -84.32834 38034 ft 433 kts 211°
2026-05-03 22:27 40.20474 -84.36115 38042 ft 433 kts 211°
2026-05-03 22:28 40.14996 -84.39381 38032 ft 433 kts 211°
2026-05-03 22:28 40.09518 -84.42648 38012 ft 433 kts 212°
2026-05-03 22:29 40.04044 -84.45912 38047 ft 432 kts 212°
2026-05-03 22:29 39.98576 -84.49169 38059 ft 432 kts 212°
2026-05-03 22:30 39.93140 -84.52400 38048 ft 432 kts 212°
2026-05-03 22:30 39.87665 -84.55637 38021 ft 432 kts 212°
2026-05-03 22:31 39.82192 -84.58867 38027 ft 432 kts 212°
2026-05-03 22:31 39.76709 -84.62111 38034 ft 433 kts 212°
2026-05-03 22:32 39.71227 -84.65349 38039 ft 433 kts 212°
2026-05-03 22:32 39.65730 -84.68580 38015 ft 434 kts 212°
2026-05-03 22:33 39.60236 -84.71806 38030 ft 434 kts 212°
2026-05-03 22:33 39.54735 -84.75020 38033 ft 434 kts 212°
2026-05-03 22:34 39.49236 -84.78245 38039 ft 434 kts 212°
2026-05-03 22:34 39.43902 -84.81370 38014 ft 434 kts 212°
2026-05-03 22:35 39.38404 -84.84572 38027 ft 434 kts 212°
2026-05-03 22:35 39.32902 -84.87775 38042 ft 434 kts 212°
2026-05-03 22:36 39.27398 -84.90983 38032 ft 434 kts 212°
2026-05-03 22:36 39.21889 -84.94181 38019 ft 434 kts 212°
2026-05-03 22:37 39.16387 -84.97363 38034 ft 433 kts 212°
2026-05-03 22:37 39.10915 -85.00527 38051 ft 433 kts 212°
2026-05-03 22:38 39.05457 -85.03680 38057 ft 432 kts 212°
2026-05-03 22:38 38.99970 -85.06840 38020 ft 432 kts 212°
2026-05-03 22:39 38.94478 -85.10002 38034 ft 432 kts 212°
2026-05-03 22:39 38.89111 -85.13086 38048 ft 432 kts 212°
2026-05-03 22:40 38.83625 -85.16229 38049 ft 432 kts 212°
2026-05-03 22:40 38.78140 -85.19365 38012 ft 432 kts 212°
2026-05-03 22:41 38.72661 -85.22495 38042 ft 431 kts 212°
2026-05-03 22:41 38.67186 -85.25622 38051 ft 431 kts 212°
2026-05-03 22:42 38.61714 -85.28737 38055 ft 430 kts 212°
2026-05-03 22:42 38.56240 -85.31842 38056 ft 430 kts 212°
2026-05-03 22:43 38.50774 -85.34948 38053 ft 429 kts 212°
2026-05-03 22:43 38.45277 -85.38064 38058 ft 429 kts 212°
2026-05-03 22:44 38.39783 -85.41163 38059 ft 429 kts 212°
2026-05-03 22:44 38.34335 -85.44251 38056 ft 429 kts 212°
2026-05-03 22:45 38.28806 -85.47373 38068 ft 429 kts 212°
2026-05-03 22:45 38.23676 -85.50258 38068 ft 429 kts 212°
2026-05-03 22:46 38.18212 -85.53327 38064 ft 429 kts 212°
2026-05-03 22:46 38.12818 -85.56353 38065 ft 429 kts 212°
2026-05-03 22:47 38.07418 -85.59396 38047 ft 428 kts 212°
2026-05-03 22:47 38.02002 -85.62533 38056 ft 427 kts 213°
2026-05-03 22:48 37.96597 -85.65686 38061 ft 428 kts 213°
2026-05-03 22:48 37.91189 -85.68818 38065 ft 427 kts 213°
2026-05-03 22:49 37.85774 -85.71930 38020 ft 427 kts 212°
2026-05-03 22:49 37.80365 -85.75036 38044 ft 427 kts 212°
2026-05-03 22:50 37.74951 -85.78137 38055 ft 427 kts 212°
2026-05-03 22:50 37.69951 -85.81008 38059 ft 427 kts 212°
2026-05-03 22:51 37.64873 -85.83923 38061 ft 427 kts 212°
2026-05-03 22:51 37.59470 -85.87013 38043 ft 427 kts 212°
2026-05-03 22:52 37.54081 -85.90076 38066 ft 427 kts 212°
2026-05-03 22:52 37.48665 -85.93153 38074 ft 427 kts 212°
2026-05-03 22:53 37.43289 -85.96215 38086 ft 427 kts 212°
2026-05-03 22:53 37.37882 -85.99287 38052 ft 427 kts 212°
2026-05-03 22:54 37.32466 -86.02353 38082 ft 427 kts 212°
2026-05-03 22:54 37.27046 -86.05417 38093 ft 427 kts 212°
2026-05-03 22:55 37.21630 -86.08478 38095 ft 427 kts 212°
2026-05-03 22:55 37.16213 -86.11538 38075 ft 427 kts 211°
2026-05-03 22:56 37.10789 -86.14591 38088 ft 427 kts 211°
2026-05-03 22:56 37.05370 -86.17630 38096 ft 427 kts 211°
2026-05-03 22:57 36.99937 -86.20682 38086 ft 428 kts 212°
2026-05-03 22:57 36.94505 -86.23737 38098 ft 429 kts 212°
2026-05-03 22:58 36.89079 -86.26777 38071 ft 429 kts 211°
2026-05-03 22:58 36.83619 -86.29827 38086 ft 430 kts 211°
2026-05-03 22:59 36.78160 -86.32872 38098 ft 430 kts 211°
2026-05-03 22:59 36.72697 -86.35913 38110 ft 430 kts 211°
2026-05-03 23:00 36.67224 -86.38947 38087 ft 430 kts 211°
2026-05-03 23:00 36.61757 -86.41980 38109 ft 430 kts 211°
2026-05-03 23:01 36.56319 -86.44996 38125 ft 430 kts 211°
2026-05-03 23:01 36.50853 -86.48023 38121 ft 430 kts 211°
2026-05-03 23:02 36.45347 -86.51076 38120 ft 430 kts 211°
2026-05-03 23:02 36.39912 -86.54073 38100 ft 430 kts 210°
2026-05-03 23:03 36.34434 -86.57081 38112 ft 430 kts 211°
2026-05-03 23:03 36.29851 -86.59608 38114 ft 431 kts 211°
2026-05-03 23:04 36.24362 -86.62629 38098 ft 432 kts 211°
2026-05-03 23:04 36.18823 -86.65667 38064 ft 433 kts 210°
2026-05-03 23:05 36.13060 -86.68014 38075 ft 445 kts 195°
2026-05-03 23:05 36.06791 -86.68216 38087 ft 455 kts 184°
2026-05-03 23:05 36.03623 -86.68092 37853 ft 455 kts 184°
2026-05-03 23:06 36.00461 -86.67968 37581 ft 455 kts 184°
2026-05-03 23:06 35.97290 -86.67847 37319 ft 456 kts 184°
2026-05-03 23:06 35.94120 -86.67725 37052 ft 457 kts 184°
2026-05-03 23:06 35.90941 -86.67602 36788 ft 458 kts 184°
2026-05-03 23:07 35.87748 -86.67478 36532 ft 459 kts 184°
2026-05-03 23:07 35.84558 -86.67353 36291 ft 460 kts 184°
2026-05-03 23:07 35.81357 -86.67229 36036 ft 460 kts 184°
2026-05-03 23:07 35.78154 -86.67108 35778 ft 461 kts 184°
2026-05-03 23:08 35.75002 -86.66990 35528 ft 462 kts 184°
2026-05-03 23:08 35.71785 -86.66872 35275 ft 463 kts 184°
2026-05-03 23:08 35.68902 -86.66766 35031 ft 464 kts 184°
2026-05-03 23:08 35.65673 -86.66644 34782 ft 464 kts 184°
2026-05-03 23:09 35.62447 -86.66518 34536 ft 465 kts 184°
2026-05-03 23:09 35.59211 -86.66392 34269 ft 465 kts 184°
2026-05-03 23:09 35.55977 -86.66266 33502 ft 465 kts 184°
2026-05-03 23:09 35.52736 -86.66140 33050 ft 467 kts 184°
2026-05-03 23:10 35.49478 -86.66014 32606 ft 469 kts 184°
2026-05-03 23:10 35.46264 -86.65889 32173 ft 471 kts 184°
2026-05-03 23:10 35.42988 -86.65764 31719 ft 471 kts 183°
2026-05-03 23:10 35.39719 -86.65640 31300 ft 469 kts 183°
2026-05-03 23:11 35.36468 -86.65516 30877 ft 466 kts 183°
2026-05-03 23:11 35.33238 -86.65394 30467 ft 464 kts 183°
2026-05-03 23:11 35.30014 -86.65272 30042 ft 462 kts 183°
2026-05-03 23:11 35.26817 -86.65154 29565 ft 458 kts 183°
2026-05-03 23:12 35.23639 -86.65036 29097 ft 455 kts 183°
2026-05-03 23:12 35.20487 -86.64916 28632 ft 452 kts 183°
2026-05-03 23:12 35.17359 -86.64792 28163 ft 447 kts 182°
2026-05-03 23:12 35.14264 -86.64669 27716 ft 444 kts 182°
2026-05-03 23:13 35.11189 -86.64550 27274 ft 440 kts 182°
2026-05-03 23:13 35.08135 -86.64435 26840 ft 437 kts 182°
2026-05-03 23:13 35.05105 -86.64326 26411 ft 434 kts 182°
2026-05-03 23:13 35.02092 -86.64218 25986 ft 431 kts 182°
2026-05-03 23:14 34.99106 -86.64109 25567 ft 428 kts 182°
2026-05-03 23:14 34.96136 -86.64001 25158 ft 426 kts 182°
2026-05-03 23:14 34.93184 -86.63894 24740 ft 423 kts 182°
2026-05-03 23:14 34.90254 -86.63787 24342 ft 420 kts 182°
2026-05-03 23:15 34.87339 -86.63677 23953 ft 418 kts 182°
2026-05-03 23:15 34.84442 -86.63566 23537 ft 415 kts 182°
2026-05-03 23:15 34.81566 -86.63526 23070 ft 410 kts 187°
2026-05-03 23:15 34.78761 -86.63947 22615 ft 403 kts 196°
2026-05-03 23:16 34.76081 -86.64860 22167 ft 397 kts 203°
2026-05-03 23:16 34.73473 -86.65935 21726 ft 395 kts 202°
2026-05-03 23:16 34.70867 -86.66991 21284 ft 394 kts 202°
2026-05-03 23:16 34.68272 -86.68034 20843 ft 392 kts 202°
2026-05-03 23:17 34.65692 -86.69068 20419 ft 389 kts 202°
2026-05-03 23:17 34.63165 -86.70085 20004 ft 387 kts 202°
2026-05-03 23:17 34.60624 -86.71113 19596 ft 385 kts 202°
2026-05-03 23:17 34.58082 -86.72141 19191 ft 383 kts 202°
2026-05-03 23:18 34.55558 -86.73158 18793 ft 381 kts 201°
2026-05-03 23:18 34.53049 -86.74166 18393 ft 380 kts 201°
2026-05-03 23:18 34.50544 -86.75174 17939 ft 378 kts 201°
2026-05-03 23:18 34.48061 -86.76177 17492 ft 376 kts 201°
2026-05-03 23:19 34.45583 -86.77176 17048 ft 373 kts 201°
2026-05-03 23:19 34.43135 -86.78158 16604 ft 369 kts 201°
2026-05-03 23:19 34.40719 -86.79127 16173 ft 365 kts 201°
2026-05-03 23:19 34.38324 -86.80090 15757 ft 361 kts 201°
2026-05-03 23:20 34.35954 -86.81044 15339 ft 357 kts 201°
2026-05-03 23:20 34.33607 -86.81990 14926 ft 354 kts 201°
2026-05-03 23:20 34.31280 -86.82929 14519 ft 351 kts 201°
2026-05-03 23:20 34.28974 -86.83857 14118 ft 348 kts 201°
2026-05-03 23:21 34.26682 -86.84774 13688 ft 345 kts 201°
2026-05-03 23:21 34.24407 -86.85681 13244 ft 343 kts 201°
2026-05-03 23:21 34.22153 -86.86580 12792 ft 339 kts 201°
2026-05-03 23:21 34.19944 -86.87463 12396 ft 330 kts 201°
2026-05-03 23:22 34.15748 -86.89132 11977 ft 308 kts 201°
2026-05-03 23:22 34.13727 -86.89938 11777 ft 305 kts 201°
2026-05-03 23:22 34.11714 -86.90744 11579 ft 304 kts 201°
2026-05-03 23:23 34.09707 -86.91547 11371 ft 303 kts 201°
2026-05-03 23:23 34.07709 -86.92347 11185 ft 302 kts 201°
2026-05-03 23:23 34.05714 -86.93144 11033 ft 302 kts 201°
2026-05-03 23:23 34.03723 -86.93938 10996 ft 302 kts 201°
2026-05-03 23:24 34.01694 -86.94736 10572 ft 312 kts 197°
2026-05-03 23:24 33.99568 -86.94896 10409 ft 305 kts 172°
2026-05-03 23:24 33.97612 -86.93993 10108 ft 303 kts 146°
2026-05-03 23:24 33.96004 -86.92356 9717 ft 302 kts 136°
2026-05-03 23:25 33.94483 -86.90616 9337 ft 300 kts 136°
2026-05-03 23:25 33.92982 -86.88882 8951 ft 298 kts 136°
2026-05-03 23:25 33.91495 -86.87156 8569 ft 296 kts 136°
2026-05-03 23:25 33.90019 -86.85441 8197 ft 293 kts 136°
2026-05-03 23:26 33.88557 -86.83746 7802 ft 291 kts 136°
2026-05-03 23:26 33.87106 -86.82056 7408 ft 289 kts 136°
2026-05-03 23:26 33.85666 -86.80385 7022 ft 287 kts 136°
2026-05-03 23:26 33.84255 -86.78749 6664 ft 284 kts 136°
2026-05-03 23:27 33.82837 -86.77096 6235 ft 283 kts 136°
2026-05-03 23:27 33.81432 -86.75448 5804 ft 282 kts 136°
2026-05-03 23:27 33.80022 -86.73786 5417 ft 279 kts 136°
2026-05-03 23:27 33.78566 -86.72255 4998 ft 277 kts 144°
2026-05-03 23:28 33.76865 -86.71230 4612 ft 272 kts 160°
2026-05-03 23:28 33.75137 -86.70315 4139 ft 272 kts 156°
2026-05-03 23:28 33.73484 -86.69368 3993 ft 259 kts 156°
2026-05-03 23:28 33.71899 -86.68452 3863 ft 247 kts 155°
2026-05-03 23:29 33.70368 -86.67566 3679 ft 237 kts 156°
2026-05-03 23:29 33.68905 -86.66712 3440 ft 230 kts 156°
2026-05-03 23:29 33.67506 -86.65894 3190 ft 224 kts 155°
2026-05-03 23:29 33.66090 -86.65198 2929 ft 217 kts 173°
2026-05-03 23:30 33.64644 -86.65385 2710 ft 206 kts 201°
2026-05-03 23:30 33.63357 -86.65987 2463 ft 193 kts 205°
2026-05-03 23:30 33.62150 -86.66590 2250 ft 180 kts 205°
2026-05-03 23:30 33.61175 -86.67346 2052 ft 155 kts 226°
2026-05-03 23:31 33.60574 -86.68303 1874 ft 136 kts 238°
2026-05-03 23:31 33.60049 -86.69222 1712 ft 131 kts 239°
2026-05-03 23:31 33.59543 -86.70118 1457 ft 129 kts 238°
2026-05-03 23:31 33.59026 -86.71002 1275 ft 129 kts 238°
2026-05-03 23:32 33.58522 -86.71880 1089 ft 128 kts 238°
2026-05-03 23:32 33.58009 -86.72759 924 ft 129 kts 238°
2026-05-03 23:32 33.57505 -86.73636 765 ft 127 kts 238°
2026-05-03 23:32 33.57008 -86.74499 625 ft 121 kts 238°
2026-05-03 23:33 33.56651 -86.75124 606 ft 50 kts 235°
2026-05-03 23:33 33.56521 -86.75350 614 ft 29 kts 235°
2026-05-03 23:33 33.56413 -86.75538 613 ft 22 kts 235°
2026-05-03 23:33 33.56350 -86.75583 618 ft 11 kts 165°
2026-05-03 23:34 33.56313 -86.75522 618 ft 9 kts 86°
2026-05-03 23:34 33.56341 -86.75455 611 ft 9 kts 52°
2026-05-03 23:34 33.56380 -86.75388 620 ft 10 kts 73°
2026-05-03 23:34 33.56343 -86.75334 608 ft 9 kts 165°
2026-05-03 23:35 33.56302 -86.75348 615 ft 2 kts 201°
2026-05-03 23:35 33.56283 -86.75356 608 ft 4 kts 201°
2026-05-03 23:35 33.56255 -86.75366 617 ft 5 kts 182°
2026-05-03 23:35 33.56227 -86.75344 608 ft 5 kts 140°
2026-05-03 23:36 33.56210 -86.75328 608 ft 3 kts 142°
2026-05-03 23:36 33.56206 -86.75325 608 ft 0 kts 141°